Wind_Speed
10 10 9 9 9 8 8 7 7 7 6 6 7 7 7 8 9 9 9 9 9 9 10 11 11 12 12 12 11 11 11 11 11 10 10 9 8 8 8 8 8 7 7
10 10 9 9 9 8 7 7 7 7 7 8 8 8 8 8 8 9 9 10 10 11 11 11 11 12 11 11 11 11 11 11 11 10 9 9 9 9 8 8 8 8 7
10 10 9 9 8 7 7 7 7 8 8 8 8 8 8 8 8 9 9 10 10 11 11 11 11 11 11 11 10 10 10 10 10 10 9 9 9 8 8 8 8 8 8
10 10 9 9 8 8 8 8 8 8 7 7 7 7 7 7 8 8 9 9 10 10 10 11 10 10 10 10 10 10 10 10 10 9 9 9 8 8 9 9 9 9 9
10 9 9 8 8 9 8 8 8 8 7 7 7 7 7 7 7 8 8 9 9 10 10 10 9 10 10 10 10 10 10 9 9 9 8 8 8 8 9 9 9 9 9
9 9 8 8 9 9 8 8 8 8 7 7 7 7 7 7 7 7 7 8 8 9 10 10 9 10 9 10 10 10 9 9 9 9 8 7 8 8 9 9 9 8 8
10 10 9 9 9 8 8 8 7 7 7 7 7 7 7 7 7 7 7 7 8 9 10 10 10 10 10 10 10 9 9 9 8 8 8 8 8 9 9 8 8 8 8
10 10 9 9 9 8 7 7 7 8 8 7 7 7 7 7 7 7 7 7 8 9 9 10 10 10 10 10 9 9 9 9 8 7 7 7 8 8 8 8 7 7 7
10 10 10 9 9 8 7 7 7 7 8 7 7 7 6 6 6 6 7 7 7 8 8 9 10 10 9 9 9 9 8 8 7 7 7 6 6 7 7 7 7 6 6
11 10 10 9 9 8 8 7 7 7 7 7 6 6 6 6 6 6 6 6 7 7 8 8 9 9 8 8 8 7 7 7 6 6 6 6 6 6 6 6 6 5 5
11 10 10 9 9 8 8 7 6 6 6 6 6 6 5 5 5 5 5 6 6 7 7 7 7 7 7 7 7 6 6 6 5 5 5 5 5 5 5 4 4 4 4
11 10 10 9 9 8 7 7 6 5 5 5 5 5 5 4 4 5 5 5 5 6 6 6 6 6 6 6 5 5 5 5 4 4 4 4 4 4 4 3 3 3 3
11 10 9 9 9 8 7 7 7 6 5 5 4 4 4 4 4 4 4 4 5 5 5 5 4 5 5 5 4 4 4 4 3 3 3 3 3 2 2 2 1 1 1
12 10 9 9 8 8 7 7 7 6 5 5 5 4 3 3 3 3 3 3 4 4 4 4 4 4 4 3 3 3 3 2 2 2 1 1 1 1 1 1 1 1 1
13 11 10 9 9 8 7 6 6 6 5 4 4 3 2 2 2 3 3 4 3 3 2 2 3 3 3 3 3 2 2 1 1 1 1 1 1 1 1 2 2 3 3
13 12 11 10 9 9 8 6 6 5 5 4 4 3 3 2 2 3 3 4 3 2 2 1 1 2 2 2 2 2 1 1 1 2 2 2 2 2 3 3 4 4 4
14 12 11 10 9 8 8 7 6 6 5 5 4 3 3 3 2 2 3 3 3 2 2 1 1 1 1 1 1 1 1 1 2 3 3 3 3 4 4 5 5 5 5
14 13 11 10 9 8 8 8 7 6 5 5 4 3 3 3 3 3 4 3 3 3 2 1 1 1 0 1 1 1 2 3 3 4 4 5 5 5 6 7 7 6 6
15 14 11 10 9 8 7 7 7 6 6 5 4 3 3 3 3 3 3 2 3 3 3 2 2 2 2 3 3 4 4 5 5 6 6 6 7 8 8 8 8 8 8
15 14 12 11 10 8 7 7 7 6 6 5 3 2 2 2 2 2 2 1 2 2 2 3 3 3 4 4 5 5 6 6 6 7 7 8 8 8 9 9 9 9 9
14 13 12 11 10 10 8 7 7 6 6 5 4 3 2 2 1 1 0 1 2 2 2 3 4 5 5 6 6 7 7 7 7 7 7 8 9 9 9 10 10 11 11
14 14 13 12 11 10 9 7 6 6 5 5 4 3 2 1 0 1 1 2 2 3 3 4 5 6 7 7 7 8 8 8 8 8 8 9 9 9 10 11 12 12 12
14 13 12 12 11 11 10 8 7 6 5 4 4 3 2 1 1 1 2 2 3 4 4 5 5 6 7 7 8 8 9 9 9 9 10 10 10 10 11 11 11 12 13
13 13 12 12 12 11 10 9 8 6 5 5 4 3 2 2 2 2 3 3 4 4 5 6 6 7 7 8 8 9 9 10 10 11 11 11 11 11 12 12 13 14 14
12 12 12 12 12 11 10 10 9 7 6 5 5 4 3 3 3 4 4 4 5 6 6 7 7 8 8 9 9 10 10 10 11 12 12 12 11 12 12 13 14 14 14
12 12 12 12 12 11 10 9 10 8 6 5 4 4 4 4 4 5 5 5 6 7 7 8 8 9 9 10 10 11 11 11 11 11 12 12 12 13 12 13 14 15 15
Wind_Direction
65 65 64 63 61 59 55 52 48 44 46 48 64 71 71 78 82 84 94 96 101 105 107 105 104 110 110 110 106 104 106 108 107 106 104 104 105 105 106 106 107 106 105
65 64 65 65 62 59 57 57 56 52 48 50 65 71 68 70 78 84 91 97 100 102 105 107 107 109 108 107 106 106 106 105 104 102 100 99 101 101 100 101 101 99 101
65 64 64 64 63 60 61 61 59 56 50 52 61 68 69 70 76 82 89 96 97 101 104 108 107 104 104 103 104 105 105 105 103 100 101 99 98 99 98 98 97 98 100
65 64 64 65 65 65 66 64 63 59 56 56 57 63 71 78 79 85 89 94 96 101 105 107 106 103 105 105 105 104 104 104 103 103 102 102 100 99 100 98 98 96 98
65 64 64 66 66 67 68 66 63 61 62 63 62 60 70 83 88 88 90 94 95 97 100 104 105 105 104 104 103 102 101 101 101 101 103 101 98 98 98 97 97 96 97
63 63 66 67 69 70 68 68 64 63 64 64 68 67 69 76 81 88 93 95 98 97 95 95 101 103 104 105 105 102 101 99 96 97 97 97 96 99 99 99 99 97 97
62 63 68 72 73 72 70 70 67 65 63 64 69 73 73 74 73 85 89 90 99 100 98 95 98 102 106 104 105 103 102 100 98 96 95 95 98 101 102 105 103 100 97
63 64 67 69 69 70 71 72 71 69 67 67 72 76 77 76 78 86 87 91 96 97 96 96 98 100 99 99 101 100 99 98 97 97 97 97 99 99 102 104 103 101 100
61 62 65 66 66 67 73 76 75 74 71 71 76 78 80 80 84 91 91 91 91 93 95 96 98 98 99 99 100 100 99 98 95 95 93 98 99 101 102 102 99 99 100
61 62 61 62 65 68 73 78 81 79 74 72 76 77 78 81 88 92 94 96 95 97 98 98 99 99 100 100 99 98 99 96 94 93 90 91 96 101 101 100 95 94 97
58 59 59 61 65 70 74 78 81 79 74 72 73 72 76 84 93 94 94 99 102 106 104 101 100 99 100 101 100 96 94 92 90 90 87 87 96 97 97 95 90 87 84
54 54 56 62 67 68 72 74 76 75 74 72 72 71 72 84 97 97 95 99 104 109 108 104 99 98 97 94 92 92 91 90 88 88 85 87 93 89 87 88 85 77 70
56 55 56 58 61 65 70 68 70 75 72 69 67 69 73 82 99 100 98 102 107 110 107 100 97 95 90 84 85 86 86 84 79 79 85 88 86 82 73 64 60 50 38
59 59 61 60 62 63 67 69 64 67 65 61 59 70 85 96 102 119 118 121 121 115 107 96 83 79 77 79 73 69 69 71 69 62 78 59 57 49 22 349 338 327 322
54 57 59 63 63 60 60 59 57 62 59 63 65 74 99 106 112 138 146 145 138 131 116 90 78 72 74 77 64 63 65 57 28 18 313 289 313 323 313 313 310 306 304
45 48 52 57 58 60 59 52 51 57 54 57 65 69 80 88 116 137 158 162 153 153 138 110 88 78 89 80 63 53 41 9 341 325 304 290 295 297 298 296 298 301 299
40 42 47 52 56 55 55 51 47 43 41 47 61 66 66 80 101 135 153 164 165 168 162 137 95 112 110 102 56 36 348 319 318 300 300 298 290 288 289 289 291 293 295
38 38 42 45 49 51 53 50 45 40 38 37 44 58 58 74 91 120 144 156 168 175 179 196 199 193 197 312 308 306 292 294 289 291 293 293 286 283 285 287 290 289 290
37 36 38 40 43 45 46 43 37 37 37 36 41 51 55 74 91 117 142 154 169 177 192 220 229 251 270 286 292 291 286 287 284 285 283 285 284 283 282 286 286 283 284
35 35 34 35 36 37 35 33 32 33 33 33 34 40 42 71 95 111 138 143 161 189 216 238 249 258 266 273 283 290 291 290 290 290 285 282 285 286 281 283 284 282 281
33 33 34 33 31 30 29 28 28 29 28 27 24 27 34 57 95 93 204 238 237 243 253 264 263 262 268 274 278 285 286 285 286 287 285 282 282 279 281 283 284 284 280
29 30 31 31 31 27 23 22 22 24 24 21 21 18 11 356 308 261 259 274 268 263 259 263 272 271 270 275 276 279 284 283 285 282 280 278 278 278 278 280 286 283 278
24 26 26 25 24 23 22 16 13 13 10 7 5 4 360 348 319 283 270 271 282 281 274 274 273 275 273 271 274 277 282 288 284 280 278 279 277 276 278 278 284 284 281
22 22 22 21 19 19 19 16 10 5 360 355 345 335 323 318 304 294 290 283 288 292 288 283 282 281 279 276 279 282 281 285 283 283 280 281 280 281 282 284 284 284 283
16 17 21 20 19 17 19 19 12 4 357 347 338 334 318 307 299 291 293 294 297 296 292 290 283 284 285 286 285 285 286 284 281 282 283 281 282 285 287 287 285 284 286
11 13 18 19 17 15 16 18 17 11 3 352 336 331 324 311 304 297 290 296 300 299 295 291 288 287 288 289 287 285 285 284 284 287 285 281 284 288 289 289 283 283 283
Height
5892 5891 5891 5890 5890 5889 5889 5888 5888 5887 5886 5885 5884 5884 5884 5883 5883 5882 5882 5882 5881 5881 5881 5881 5882 5882 5883 5883 5883 5883 5884 5884 5885 5885 5885 5886 5886 5886 5886 5886 5886 5886 5887
5893 5893 5892 5892 5891 5891 5890 5890 5889 5889 5888 5887 5886 5886 5885 5885 5885 5884 5883 5883 5883 5883 5883 5883 5883 5884 5884 5884 5885 5885 5885 5886 5886 5886 5887 5887 5887 5887 5887 5887 5887 5887 5887
5894 5894 5893 5893 5892 5892 5892 5891 5891 5890 5890 5889 5888 5888 5887 5887 5886 5885 5885 5885 5884 5884 5885 5885 5885 5885 5886 5886 5887 5887 5887 5887 5888 5888 5888 5888 5888 5888 5888 5888 5888 5888 5888
5895 5895 5894 5894 5894 5893 5893 5893 5892 5892 5891 5891 5890 5889 5889 5888 5888 5887 5887 5886 5886 5886 5886 5886 5887 5887 5887 5887 5888 5888 5888 5888 5889 5889 5889 5889 5890 5889 5889 5889 5889 5889 5889
5896 5896 5896 5895 5895 5895 5895 5894 5894 5894 5893 5892 5892 5891 5890 5890 5890 5889 5889 5888 5888 5888 5888 5888 5889 5889 5889 5889 5889 5889 5889 5889 5890 5890 5890 5890 5891 5890 5890 5890 5890 5890 5890
5898 5897 5897 5897 5896 5896 5896 5896 5895 5895 5895 5894 5893 5893 5892 5892 5891 5891 5890 5890 5890 5890 5890 5890 5890 5890 5890 5891 5891 5891 5891 5891 5891 5892 5892 5892 5891 5891 5891 5891 5892 5892 5892
5899 5899 5898 5898 5898 5898 5897 5897 5897 5896 5896 5895 5895 5894 5894 5894 5893 5893 5892 5892 5892 5892 5892 5892 5892 5892 5892 5892 5892 5892 5893 5893 5893 5893 5893 5893 5893 5892 5892 5892 5892 5893 5893
5901 5900 5900 5899 5899 5899 5898 5898 5898 5897 5897 5897 5896 5896 5896 5895 5895 5895 5894 5894 5894 5894 5894 5894 5894 5894 5894 5894 5894 5894 5894 5894 5894 5894 5894 5894 5894 5894 5893 5893 5893 5893 5893
5902 5902 5901 5900 5900 5900 5899 5899 5899 5899 5899 5898 5898 5898 5897 5897 5897 5896 5896 5896 5896 5896 5896 5896 5895 5895 5896 5896 5896 5896 5896 5895 5895 5895 5895 5895 5895 5895 5895 5895 5894 5894 5894
5904 5903 5902 5902 5901 5901 5901 5900 5900 5900 5900 5899 5899 5899 5899 5898 5898 5898 5897 5897 5897 5897 5897 5897 5897 5897 5897 5897 5897 5897 5897 5897 5897 5896 5896 5896 5896 5896 5896 5896 5895 5895 5895
5905 5904 5904 5903 5902 5902 5902 5902 5901 5901 5901 5900 5900 5900 5900 5900 5899 5899 5899 5899 5898 5898 5899 5899 5898 5899 5899 5898 5898 5898 5898 5898 5898 5898 5897 5897 5897 5897 5897 5896 5896 5896 5896
5906 5905 5905 5904 5903 5903 5902 5902 5902 5902 5902 5901 5901 5900 5900 5900 5900 5900 5900 5900 5900 5900 5900 5900 5900 5900 5900 5900 5899 5899 5899 5899 5899 5898 5898 5898 5898 5897 5897 5897 5897 5896 5896
5908 5907 5906 5905 5904 5904 5903 5903 5903 5903 5902 5902 5901 5901 5901 5901 5901 5901 5901 5901 5901 5901 5901 5901 5901 5901 5901 5901 5900 5900 5900 5900 5899 5899 5899 5899 5898 5898 5898 5897 5897 5897 5896
5910 5909 5908 5907 5906 5905 5904 5904 5903 5903 5903 5902 5902 5901 5901 5901 5901 5901 5901 5901 5902 5902 5902 5902 5902 5902 5902 5901 5901 5901 5900 5900 5900 5900 5899 5899 5899 5898 5898 5897 5897 5896 5896
5911 5910 5909 5908 5907 5906 5905 5905 5904 5904 5903 5902 5902 5901 5901 5901 5901 5901 5902 5902 5902 5902 5902 5902 5902 5903 5902 5902 5902 5901 5901 5901 5900 5900 5899 5899 5899 5898 5898 5897 5897 5896 5895
5912 5910 5909 5908 5907 5907 5906 5905 5905 5904 5903 5902 5902 5901 5901 5901 5901 5901 5901 5902 5902 5903 5903 5903 5903 5903 5903 5902 5902 5902 5901 5901 5900 5900 5899 5899 5898 5898 5897 5897 5896 5895 5895
5913 5911 5910 5909 5908 5907 5907 5906 5905 5904 5903 5903 5902 5902 5901 5901 5901 5901 5901 5902 5902 5903 5903 5903 5903 5903 5903 5902 5902 5902 5901 5901 5900 5899 5899 5898 5897 5897 5896 5896 5895 5894 5894
5915 5913 5911 5910 5909 5908 5907 5907 5906 5905 5904 5903 5902 5902 5901 5901 5901 5900 5901 5901 5902 5902 5902 5902 5903 5903 5902 5902 5902 5901 5901 5900 5899 5899 5898 5897 5896 5895 5895 5895 5894 5893 5892
5916 5915 5913 5911 5910 5909 5908 5907 5906 5905 5904 5903 5903 5902 5902 5901 5901 5901 5901 5901 5901 5902 5902 5902 5902 5902 5902 5901 5901 5900 5900 5899 5898 5897 5897 5896 5895 5894 5893 5893 5892 5891 5891
5918 5916 5914 5913 5911 5910 5909 5908 5907 5905 5904 5904 5903 5902 5902 5901 5901 5901 5901 5901 5901 5901 5901 5901 5901 5901 5901 5900 5900 5899 5898 5898 5897 5896 5895 5894 5893 5892 5892 5891 5890 5889 5889
5919 5917 5916 5914 5912 5911 5909 5908 5907 5906 5905 5904 5903 5903 5902 5901 5901 5901 5901 5900 5900 5900 5900 5900 5900 5900 5899 5899 5899 5898 5897 5896 5895 5894 5893 5892 5892 5891 5890 5889 5888 5887 5886
5920 5918 5917 5915 5913 5912 5910 5909 5907 5906 5905 5904 5903 5902 5902 5901 5901 5901 5900 5900 5900 5900 5900 5899 5899 5899 5898 5898 5897 5896 5895 5895 5894 5893 5891 5890 5889 5888 5888 5887 5885 5884 5883
5921 5919 5918 5916 5914 5912 5910 5909 5907 5906 5905 5904 5903 5902 5902 5901 5900 5900 5900 5900 5899 5899 5899 5898 5898 5897 5896 5896 5895 5894 5893 5893 5892 5891 5889 5888 5887 5886 5885 5884 5883 5882 5881
5923 5921 5918 5916 5914 5912 5910 5909 5907 5906 5905 5904 5903 5902 5901 5900 5900 5900 5899 5899 5898 5898 5897 5897 5896 5895 5894 5894 5893 5892 5892 5890 5889 5888 5887 5886 5885 5884 5883 5882 5880 5879 5878
5924 5921 5919 5917 5915 5913 5911 5909 5907 5906 5904 5903 5902 5901 5900 5900 5899 5898 5898 5897 5897 5896 5896 5895 5894 5893 5892 5892 5891 5890 5889 5888 5887 5885 5884 5883 5882 5881 5880 5878 5877 5875 5874
5924 5922 5919 5917 5915 5913 5911 5909 5907 5905 5904 5903 5901 5900 5899 5899 5898 5897 5896 5896 5895 5894 5894 5893 5892 5891 5890 5889 5888 5887 5886 5885 5884 5883 5881 5880 5879 5877 5876 5875 5873 5872 5870